Wind_Speed
32 32 31 29 28 27 27 26 25 23 22 21 19 17 16 15 13 12 11 10 9 8 7 7 6 5 4 4 2 2 3 2 2 2 3 4 5 6 6 7 8 8 9
34 33 32 31 30 29 28 28 27 26 25 23 22 21 19 18 16 15 13 12 11 10 9 9 8 7 6 5 5 4 4 3 3 3 3 3 4 4 5 7 8 8 9
36 36 34 32 31 31 30 29 28 28 27 26 25 23 22 21 20 18 17 15 14 13 12 11 10 9 8 7 7 6 5 5 5 5 4 4 4 5 5 6 7 8 9
38 37 36 35 34 32 31 31 30 30 30 29 28 27 25 24 23 21 19 18 17 16 15 13 13 12 11 10 9 8 7 7 6 6 6 6 6 7 7 7 7 8 9
39 39 38 36 35 35 34 32 32 31 31 31 30 29 27 26 25 24 22 21 19 18 17 16 15 14 13 12 11 11 10 9 9 8 8 7 7 8 8 8 8 8 9
40 39 39 38 37 35 35 35 34 33 31 31 31 30 29 28 27 26 25 23 21 21 20 18 17 16 16 15 14 13 12 12 11 10 10 9 9 9 9 9 9 9 9
38 39 39 39 39 38 36 35 35 35 33 33 33 32 31 31 29 27 26 25 25 23 22 21 20 19 18 17 17 16 15 14 14 13 12 11 11 11 10 10 10 10 11
35 37 38 39 40 39 39 38 36 35 34 33 33 33 32 31 30 29 29 28 27 25 24 23 22 22 21 20 19 18 18 17 16 16 15 14 13 13 13 12 12 12 13
31 33 35 37 39 40 40 40 39 37 35 34 34 33 32 31 32 32 31 31 29 28 27 26 26 24 23 23 22 21 20 20 19 18 17 17 16 16 15 15 15 15 15
27 30 31 34 37 39 39 39 39 38 37 36 35 34 34 33 33 33 33 32 31 30 29 28 27 26 25 24 24 23 23 22 21 20 19 19 18 18 18 17 17 17 17
23 26 28 31 33 36 37 39 39 38 37 36 36 36 36 36 35 34 33 33 33 32 32 31 30 28 26 26 25 25 24 24 23 23 22 21 20 20 20 19 19 19 19
19 22 26 28 30 32 35 37 37 38 39 38 37 37 38 36 35 35 35 34 34 33 34 33 32 30 29 28 27 27 26 26 25 25 24 23 23 22 22 22 22 21 21
16 19 22 25 28 30 32 34 35 37 38 38 38 39 39 38 36 36 36 35 34 34 34 34 34 32 31 30 29 29 29 28 28 27 26 25 25 24 24 24 24 23 23
11 14 17 19 23 26 29 32 33 35 35 36 37 38 38 38 37 36 36 35 35 36 35 35 35 34 32 32 31 30 30 30 30 29 28 27 27 26 26 26 26 26 26
10 11 13 15 18 22 25 27 29 32 34 34 35 36 36 37 37 37 36 36 36 36 36 35 36 36 35 33 33 32 31 30 31 30 29 29 28 28 28 28 27 27 27
8 9 9 12 15 18 22 24 26 28 30 31 32 34 36 35 36 37 36 36 36 36 36 36 36 37 37 35 34 33 32 31 31 31 31 30 29 29 29 29 28 28 29
7 7 8 9 11 14 16 19 21 23 25 27 29 31 34 34 34 35 35 35 35 35 35 35 36 36 37 37 36 35 34 34 33 31 30 31 31 31 30 30 29 29 30
9 8 7 8 9 10 12 14 17 20 22 24 26 27 30 31 30 30 32 33 33 33 33 34 34 34 35 35 35 35 35 34 33 33 32 32 32 31 31 30 30 29 29
11 10 8 7 7 8 9 11 13 16 18 20 22 24 27 28 28 28 28 29 31 31 32 33 34 34 34 34 34 33 33 33 32 32 32 32 31 30 29 28 28 27 28
14 12 10 8 6 6 6 7 9 11 13 16 18 20 23 24 24 25 26 26 27 29 30 32 34 34 33 33 34 33 32 32 32 32 32 32 31 29 27 27 27 27 27
15 14 12 10 8 6 5 5 7 9 11 13 15 17 19 20 20 22 23 25 25 26 28 29 29 31 31 31 32 32 32 31 30 30 30 30 29 28 28 27 27 27 27
18 16 15 13 10 7 5 4 4 6 7 10 12 14 16 17 18 19 21 22 22 23 24 26 27 28 29 29 29 30 29 29 30 30 29 27 26 27 26 26 26 26 25
20 18 17 15 12 9 6 5 3 2 4 6 8 11 13 15 16 17 18 19 20 21 22 23 25 26 26 27 27 26 26 27 27 26 26 25 24 24 24 24 24 24 24
23 22 21 20 16 13 10 7 6 4 1 3 5 8 10 13 14 14 15 16 17 18 19 20 21 22 23 24 23 24 24 24 23 22 22 22 23 23 23 22 22 22 23
23 22 21 20 18 15 12 9 7 6 4 2 2 4 6 8 10 11 13 15 16 16 17 18 18 19 20 21 21 22 22 22 21 20 20 20 20 21 21 20 20 21 21
22 22 21 20 18 16 14 12 10 8 6 4 2 1 2 4 6 7 9 10 12 13 14 15 15 16 17 19 19 19 19 19 19 19 19 19 19 19 19 18 18 17 18
Wind_Direction
256 254 253 253 250 248 248 249 249 249 246 245 245 247 246 245 247 246 245 246 244 244 246 247 247 246 245 242 232 210 199 194 183 177 182 194 197 203 211 216 222 228 232
254 253 253 251 249 248 248 249 248 248 245 243 243 245 245 243 245 244 242 243 244 243 242 243 244 243 243 241 233 221 215 214 211 209 205 204 207 216 225 227 232 236 238
252 251 251 250 249 248 248 246 247 247 245 242 243 243 243 242 243 243 243 242 242 242 241 242 243 243 241 239 236 232 227 224 224 225 225 225 227 231 235 238 241 241 244
251 250 250 248 248 246 247 247 246 244 243 242 242 242 242 242 241 241 242 241 240 240 240 241 242 243 242 240 238 237 233 229 228 230 234 236 240 244 247 245 246 245 246
250 249 247 246 244 243 243 244 245 244 242 241 241 239 240 242 241 240 240 241 240 239 238 239 241 242 242 241 241 240 238 237 236 236 238 241 245 245 245 247 248 250 252
248 246 245 243 242 241 241 240 241 241 241 240 239 238 239 240 241 240 240 240 239 239 238 238 240 241 242 241 241 242 242 242 241 241 243 246 247 246 247 249 252 255 259
247 245 243 241 240 238 239 239 239 240 240 240 240 241 241 240 238 238 239 239 239 239 239 239 239 240 242 242 243 244 244 245 246 246 247 249 250 250 251 253 256 260 262
247 245 243 240 238 237 238 238 238 238 238 239 240 240 239 237 236 236 237 239 239 239 239 239 239 240 242 243 243 245 246 247 248 249 249 249 250 251 254 255 257 262 265
248 245 243 240 238 237 237 236 236 237 237 237 237 236 236 233 235 235 235 236 237 239 240 240 240 240 242 243 244 245 246 247 249 250 251 251 251 252 255 257 260 263 266
250 246 243 240 238 237 237 237 236 237 236 236 236 234 231 231 233 234 234 236 236 239 240 240 240 241 241 242 245 246 246 247 248 251 252 253 254 255 257 260 262 264 267
253 247 244 240 238 237 237 237 237 236 236 236 236 235 231 232 232 233 233 235 236 237 238 239 240 241 241 242 244 246 247 248 249 250 251 253 255 257 260 261 264 266 268
255 249 245 241 239 238 238 238 238 238 237 237 238 236 233 232 232 232 233 234 236 237 238 239 239 241 241 242 243 245 247 248 249 251 252 253 254 256 259 262 265 266 267
264 255 249 244 240 238 238 239 240 239 239 239 239 237 233 233 233 234 234 236 237 237 238 239 239 240 241 241 242 245 246 247 249 251 252 254 255 257 260 264 265 266 267
278 264 253 246 244 241 240 241 241 240 240 239 238 237 235 233 232 234 234 235 236 237 237 238 239 239 239 240 242 244 245 248 248 250 252 255 257 259 262 263 264 266 267
290 276 261 252 247 245 243 243 242 241 240 241 239 237 236 235 234 235 235 235 235 236 236 237 238 239 238 240 243 244 246 249 249 250 252 254 255 258 261 263 265 266 267
304 289 273 261 252 248 246 245 244 243 241 240 240 238 236 235 235 236 238 237 236 236 237 238 239 240 241 244 245 245 246 247 249 250 252 253 255 258 261 263 264 267 268
331 306 283 268 260 255 251 247 245 243 243 240 238 237 234 234 235 236 237 237 237 237 238 238 239 240 242 243 245 245 246 247 247 249 252 253 255 257 260 262 264 267 269
343 330 302 287 276 268 258 249 246 244 243 241 239 237 234 235 234 235 236 237 236 237 239 239 239 240 242 241 243 245 247 248 250 252 254 256 259 260 260 263 266 268 268
0 352 337 310 289 277 266 253 247 244 243 241 239 237 234 235 237 237 237 237 237 238 238 239 240 240 241 241 242 243 246 247 249 252 253 256 257 256 257 261 265 266 268
10 8 1 344 321 302 284 265 251 245 241 240 239 236 234 236 237 236 238 238 238 238 239 240 241 241 242 242 241 242 244 245 248 249 251 252 252 252 254 257 261 264 267
18 14 11 5 353 333 308 278 261 251 248 245 241 238 236 236 236 234 236 236 237 238 238 240 240 239 239 240 240 241 242 244 245 246 248 248 248 251 254 256 260 263 266
24 22 19 18 10 1 348 318 283 261 251 245 238 236 236 236 236 236 237 238 239 239 237 238 237 237 237 237 239 239 239 241 242 243 245 247 249 251 254 257 261 262 263
28 28 26 23 21 20 16 9 349 292 259 246 241 238 236 235 236 240 241 241 239 237 236 235 233 234 235 235 235 234 235 237 241 241 244 248 250 252 255 258 260 263 264
29 30 30 30 33 35 35 30 25 16 329 255 247 240 236 235 238 240 239 237 237 236 235 233 232 231 231 232 233 233 234 238 239 239 243 247 250 255 258 260 262 264 265
27 29 30 32 35 37 38 34 30 23 23 359 276 245 232 229 232 233 235 237 237 236 233 233 232 231 230 230 232 232 234 235 236 240 244 248 253 255 256 259 261 263 264
26 26 27 30 33 35 34 35 33 30 30 29 20 305 240 231 228 232 228 228 229 230 228 228 226 227 229 228 228 227 228 231 235 239 243 248 253 254 255 258 262 263 262
Height
5859 5861 5863 5865 5867 5869 5871 5873 5875 5877 5879 5881 5883 5884 5886 5888 5889 5890 5891 5892 5893 5894 5895 5896 5897 5897 5898 5898 5899 5900 5900 5901 5902 5903 5903 5904 5905 5906 5907 5909 5910 5911 5912
5851 5853 5855 5857 5860 5862 5864 5867 5869 5871 5874 5876 5878 5880 5882 5884 5886 5887 5888 5890 5891 5892 5893 5894 5895 5896 5897 5897 5898 5899 5899 5900 5901 5902 5903 5903 5904 5905 5906 5907 5908 5909 5910
5843 5845 5847 5850 5852 5855 5857 5860 5862 5865 5867 5870 5872 5874 5877 5879 5881 5883 5885 5886 5888 5889 5890 5891 5893 5894 5895 5896 5897 5897 5898 5899 5900 5901 5902 5903 5903 5904 5905 5906 5906 5907 5908
5833 5836 5839 5841 5844 5847 5850 5852 5855 5858 5861 5864 5866 5869 5871 5874 5876 5878 5880 5882 5884 5886 5887 5888 5890 5891 5893 5894 5895 5896 5897 5898 5898 5899 5900 5901 5902 5902 5903 5904 5905 5905 5906
5824 5826 5829 5833 5835 5839 5842 5845 5848 5851 5854 5857 5860 5863 5865 5868 5870 5873 5875 5878 5880 5882 5883 5885 5887 5888 5890 5891 5893 5894 5895 5896 5897 5898 5899 5899 5900 5901 5901 5902 5903 5903 5903
5814 5817 5820 5823 5826 5830 5833 5837 5840 5843 5846 5849 5852 5856 5859 5862 5864 5867 5870 5872 5874 5877 5879 5881 5883 5885 5886 5888 5889 5891 5892 5893 5894 5895 5896 5897 5898 5898 5899 5900 5900 5901 5901
5803 5807 5810 5813 5817 5821 5824 5828 5832 5835 5838 5841 5845 5849 5852 5855 5858 5861 5864 5866 5869 5872 5874 5877 5879 5881 5883 5884 5886 5887 5889 5890 5891 5892 5893 5894 5895 5896 5896 5897 5897 5898 5898
5793 5797 5800 5803 5807 5811 5815 5819 5823 5827 5830 5833 5837 5840 5844 5848 5851 5855 5858 5861 5863 5866 5869 5871 5874 5876 5878 5880 5882 5883 5885 5886 5887 5889 5890 5890 5891 5892 5893 5893 5894 5895 5895
5784 5787 5790 5794 5798 5802 5806 5810 5814 5818 5822 5825 5829 5833 5837 5841 5844 5848 5851 5854 5857 5860 5863 5865 5868 5870 5873 5875 5877 5879 5880 5882 5883 5884 5885 5886 5887 5888 5889 5889 5890 5891 5891
5777 5779 5782 5785 5789 5793 5797 5801 5805 5809 5813 5817 5821 5825 5829 5833 5836 5840 5844 5847 5850 5853 5856 5859 5862 5864 5867 5869 5871 5873 5875 5877 5878 5880 5881 5882 5883 5884 5885 5885 5886 5886 5886
5770 5772 5774 5777 5780 5784 5788 5792 5796 5801 5805 5808 5812 5816 5820 5825 5829 5833 5836 5840 5843 5846 5849 5852 5855 5858 5860 5863 5865 5867 5869 5871 5873 5874 5876 5877 5878 5879 5880 5880 5881 5881 5881
5764 5765 5767 5769 5773 5776 5780 5784 5788 5792 5796 5800 5804 5808 5812 5816 5820 5825 5828 5831 5835 5838 5842 5845 5848 5851 5854 5856 5859 5861 5863 5865 5867 5869 5870 5872 5873 5874 5874 5875 5876 5876 5876
5759 5759 5761 5763 5766 5769 5772 5776 5780 5784 5787 5791 5795 5800 5804 5808 5812 5816 5820 5823 5827 5831 5834 5838 5841 5844 5847 5849 5852 5854 5856 5858 5860 5862 5864 5865 5867 5868 5869 5869 5870 5870 5870
5755 5755 5756 5757 5759 5762 5765 5769 5772 5775 5779 5783 5787 5791 5795 5799 5804 5807 5812 5815 5819 5823 5827 5830 5834 5837 5839 5842 5845 5847 5849 5852 5853 5855 5857 5859 5860 5861 5862 5863 5863 5864 5864
5752 5752 5752 5753 5755 5757 5759 5761 5764 5768 5771 5775 5779 5782 5786 5791 5795 5799 5803 5807 5811 5815 5819 5822 5826 5829 5832 5835 5837 5840 5842 5844 5846 5848 5850 5851 5853 5854 5855 5856 5857 5857 5857
5750 5750 5749 5750 5750 5752 5754 5756 5758 5761 5764 5768 5771 5775 5779 5782 5787 5791 5795 5798 5802 5806 5810 5814 5817 5820 5823 5826 5829 5832 5834 5837 5839 5841 5843 5844 5845 5847 5848 5849 5849 5850 5850
5749 5748 5747 5747 5747 5748 5748 5750 5752 5755 5758 5761 5764 5768 5771 5775 5779 5783 5787 5790 5794 5798 5802 5805 5808 5812 5815 5818 5821 5824 5826 5829 5831 5833 5835 5837 5838 5839 5840 5841 5842 5842 5843
5748 5747 5745 5744 5744 5744 5745 5746 5747 5750 5752 5755 5758 5761 5765 5768 5772 5776 5779 5783 5786 5790 5794 5797 5800 5803 5807 5810 5813 5816 5818 5821 5823 5825 5827 5829 5830 5831 5832 5833 5834 5834 5835
5748 5746 5743 5742 5742 5742 5742 5742 5743 5745 5747 5749 5752 5755 5758 5762 5765 5768 5772 5775 5778 5782 5785 5789 5792 5795 5798 5802 5805 5807 5810 5813 5815 5817 5819 5821 5822 5823 5824 5825 5826 5827 5827
5748 5746 5743 5741 5740 5740 5740 5740 5740 5741 5743 5745 5747 5750 5753 5756 5759 5762 5765 5768 5771 5774 5777 5780 5784 5787 5790 5793 5796 5799 5802 5805 5807 5810 5811 5813 5814 5815 5817 5818 5819 5820 5820
5749 5746 5743 5741 5739 5738 5738 5738 5738 5739 5740 5742 5744 5746 5748 5751 5753 5756 5759 5762 5764 5767 5770 5772 5776 5779 5782 5785 5789 5792 5795 5797 5800 5802 5804 5806 5807 5809 5810 5811 5812 5812 5813
5751 5748 5744 5742 5739 5738 5736 5736 5736 5737 5737 5738 5740 5742 5744 5746 5749 5751 5753 5756 5758 5761 5763 5766 5769 5772 5775 5778 5781 5784 5787 5791 5793 5796 5798 5799 5800 5802 5803 5804 5805 5805 5806
5754 5750 5746 5743 5740 5738 5737 5736 5735 5735 5735 5736 5737 5738 5740 5742 5744 5746 5748 5751 5753 5755 5758 5760 5763 5766 5769 5772 5775 5778 5781 5784 5787 5789 5791 5793 5794 5795 5796 5797 5798 5799 5800
5758 5753 5749 5745 5741 5739 5738 5736 5736 5735 5734 5735 5735 5736 5737 5739 5741 5743 5744 5746 5748 5751 5753 5756 5758 5761 5763 5766 5769 5773 5775 5778 5781 5783 5785 5787 5788 5789 5790 5791 5792 5792 5793
5761 5757 5753 5749 5745 5743 5740 5739 5737 5736 5735 5735 5735 5735 5736 5737 5738 5740 5741 5743 5745 5747 5749 5751 5754 5756 5759 5762 5764 5768 5771 5773 5775 5777 5779 5781 5782 5784 5785 5786 5786 5786 5787
5765 5761 5757 5753 5749 5746 5744 5741 5740 5738 5736 5735 5735 5735 5735 5736 5737 5738 5739 5740 5742 5744 5746 5748 5751 5753 5755 5758 5761 5764 5766 5768 5770 5772 5774 5776 5777 5779 5780 5780 5781 5781 5782